Voltar ao catálogo

DISKSAT D

AtivoCiênciaVLEO
NORAD 67221·PAYLOAD·🇺🇸 United States

Lançado Dec 18, 2025 de Wallops Flight Facility

Loading…

Próximas Passagens (próximas 24 horas)

TLE

AtualizadoSource: Space-Track

Época: Sep 14, 2026, 06:01 UTC

1 67221U 25305C   26257.25100989  .00001241  00000-0  91259-4 0  9997
2 67221  45.0050 330.8904 0006448 302.3524  57.6728 15.09565627 40771

Acompanhe DISKSAT D em tempo real com AllMySat

Download on the App Store